Location: Zagreb
(45.8000°N, 16.0000°E)
Time: 13:10:38
(UTC+02:00)

Envisat - Pass Details

Date: 23 January 2022
Orbit: 764 x 765 km, 98.2° (Epoch: 22 May)

Event Time Altitude Azimuth Distance (km) Brightness Sun altitude
Rises 05:28:09 0° 8° (N) 3,241 6.3 -20.6°
Reaches altitude 10° 05:30:31 10° 3° (N) 2,311 5.4 -20.2°
Maximum altitude 05:35:24 49° 290° (WNW) 986 3.1 -19.3°
Drops below altitude 10° 05:40:15 10° 217° (SW) 2,296 5.2 -18.5°
Sets 05:42:36 0° 212° (SSW) 3,218 6.0 -18.1°
